Year,Month,Day,Hour,Minute,Value (Times are PST for temperature in C)
2006,09,24,00,00,9.60
2006,09,24,00,01,9.60
2006,09,24,00,02,9.60
2006,09,24,00,03,9.60
2006,09,24,00,04,9.60
2006,09,24,00,05,9.60
2006,09,24,00,06,9.50
2006,09,24,00,07,9.50
2006,09,24,00,08,9.50
2006,09,24,00,09,9.50
2006,09,24,00,10,9.50
2006,09,24,00,11,9.50
2006,09,24,00,12,9.50
2006,09,24,00,13,9.40
2006,09,24,00,14,9.40
2006,09,24,00,15,9.40
2006,09,24,00,16,9.40
2006,09,24,00,17,9.40
2006,09,24,00,18,9.40
2006,09,24,00,19,9.40
2006,09,24,00,20,9.40
2006,09,24,00,21,9.40
2006,09,24,00,22,9.30
2006,09,24,00,23,9.30
2006,09,24,00,24,9.30
2006,09,24,00,25,9.30
2006,09,24,00,26,9.30
2006,09,24,00,27,9.30
2006,09,24,00,28,9.30
2006,09,24,00,29,9.30
2006,09,24,00,30,9.30
2006,09,24,00,31,9.30
2006,09,24,00,32,9.20
2006,09,24,00,33,9.20
2006,09,24,00,34,9.20
2006,09,24,00,35,9.20
2006,09,24,00,36,9.20
2006,09,24,00,37,9.20
2006,09,24,00,38,9.20
2006,09,24,00,39,9.20
2006,09,24,00,40,9.20
2006,09,24,00,41,9.20
2006,09,24,00,42,9.20
2006,09,24,00,43,9.20
2006,09,24,00,44,9.20
2006,09,24,00,45,9.20
2006,09,24,00,46,9.20
2006,09,24,00,47,9.20
2006,09,24,00,48,9.10
2006,09,24,00,49,9.10
2006,09,24,00,50,9.10
2006,09,24,00,51,9.10
2006,09,24,00,52,9.10
2006,09,24,00,53,9.10
2006,09,24,00,54,9.10
2006,09,24,00,55,9.00
2006,09,24,00,56,9.00
2006,09,24,00,57,9.00
2006,09,24,00,58,9.00
2006,09,24,00,59,9.00
2006,09,24,01,00,9.00
2006,09,24,01,01,8.90
2006,09,24,01,02,8.90
2006,09,24,01,03,8.90
2006,09,24,01,04,8.90
2006,09,24,01,05,8.90
2006,09,24,01,06,8.90
2006,09,24,01,07,8.90
2006,09,24,01,08,8.90
2006,09,24,01,09,8.90
2006,09,24,01,10,8.90
2006,09,24,01,11,8.90
2006,09,24,01,12,8.80
2006,09,24,01,13,8.80
2006,09,24,01,14,8.80
2006,09,24,01,15,8.80
2006,09,24,01,16,8.90
2006,09,24,01,17,8.90
2006,09,24,01,18,8.90
2006,09,24,01,19,8.90
2006,09,24,01,20,8.80
2006,09,24,01,21,8.80
2006,09,24,01,22,8.80
2006,09,24,01,23,8.80
2006,09,24,01,24,8.80
2006,09,24,01,25,8.80
2006,09,24,01,26,8.80
2006,09,24,01,27,8.80
2006,09,24,01,28,8.80
2006,09,24,01,29,8.70
2006,09,24,01,30,8.70
2006,09,24,01,31,8.70
2006,09,24,01,32,8.70
2006,09,24,01,33,8.70
2006,09,24,01,34,8.70
2006,09,24,01,35,8.70
2006,09,24,01,36,8.70
2006,09,24,01,37,8.70
2006,09,24,01,38,8.70
2006,09,24,01,39,8.70
2006,09,24,01,40,8.70
2006,09,24,01,41,8.70
2006,09,24,01,42,8.60
2006,09,24,01,43,8.60
2006,09,24,01,44,8.60
2006,09,24,01,45,8.60
2006,09,24,01,46,8.60
2006,09,24,01,47,8.60
2006,09,24,01,48,8.60
2006,09,24,01,49,8.60
2006,09,24,01,50,8.60
2006,09,24,01,51,8.60
2006,09,24,01,52,8.60
2006,09,24,01,53,8.50
2006,09,24,01,54,8.50
2006,09,24,01,55,8.50
2006,09,24,01,56,8.50
2006,09,24,01,57,8.50
2006,09,24,01,58,8.50
2006,09,24,01,59,8.50
2006,09,24,02,00,8.40
2006,09,24,02,01,8.40
2006,09,24,02,02,8.40
2006,09,24,02,03,8.40
2006,09,24,02,04,8.40
2006,09,24,02,05,8.40
2006,09,24,02,06,8.40
2006,09,24,02,07,8.40
2006,09,24,02,08,8.40
2006,09,24,02,09,8.30
2006,09,24,02,10,8.30
2006,09,24,02,11,8.30
2006,09,24,02,12,8.30
2006,09,24,02,13,8.30
2006,09,24,02,14,8.30
2006,09,24,02,15,8.30
2006,09,24,02,16,8.30
2006,09,24,02,17,8.30
2006,09,24,02,18,8.20
2006,09,24,02,19,8.20
2006,09,24,02,20,8.20
2006,09,24,02,21,8.20
2006,09,24,02,22,8.20
2006,09,24,02,23,8.20
2006,09,24,02,24,8.20
2006,09,24,02,25,8.20
2006,09,24,02,26,8.20
2006,09,24,02,27,8.20
2006,09,24,02,28,8.20
2006,09,24,02,29,8.10
2006,09,24,02,30,8.10
2006,09,24,02,31,8.10
2006,09,24,02,32,8.10
2006,09,24,02,33,8.10
2006,09,24,02,34,8.10
2006,09,24,02,35,8.10
2006,09,24,02,36,8.10
2006,09,24,02,37,8.10
2006,09,24,02,38,8.10
2006,09,24,02,39,8.10
2006,09,24,02,40,8.10
2006,09,24,02,41,8.10
2006,09,24,02,42,8.10
2006,09,24,02,43,8.10
2006,09,24,02,44,8.10
2006,09,24,02,45,8.10
2006,09,24,02,46,8.00
2006,09,24,02,47,8.00
2006,09,24,02,48,8.00
2006,09,24,02,49,8.00
2006,09,24,02,50,8.00
2006,09,24,02,51,8.00
2006,09,24,02,52,8.00
2006,09,24,02,53,8.00
2006,09,24,02,54,8.00
2006,09,24,02,55,7.90
2006,09,24,02,56,7.90
2006,09,24,02,57,7.90
2006,09,24,02,58,7.90
2006,09,24,02,59,7.90
2006,09,24,03,00,7.90
2006,09,24,03,01,7.90
2006,09,24,03,02,7.90
2006,09,24,03,03,7.80
2006,09,24,03,04,7.80
2006,09,24,03,05,7.80
2006,09,24,03,06,7.80
2006,09,24,03,07,7.80
2006,09,24,03,08,7.80
2006,09,24,03,09,7.80
2006,09,24,03,10,7.80
2006,09,24,03,11,7.80
2006,09,24,03,12,7.80
2006,09,24,03,13,7.80
2006,09,24,03,14,7.80
2006,09,24,03,15,7.80
2006,09,24,03,16,7.80
2006,09,24,03,17,7.70
2006,09,24,03,18,7.70
2006,09,24,03,19,7.70
2006,09,24,03,20,7.70
2006,09,24,03,21,7.70
2006,09,24,03,22,7.70
2006,09,24,03,23,7.70
2006,09,24,03,24,7.70
2006,09,24,03,25,7.70
2006,09,24,03,26,7.70
2006,09,24,03,27,7.70
2006,09,24,03,28,7.70
2006,09,24,03,29,7.70
2006,09,24,03,30,7.70
2006,09,24,03,31,7.70
2006,09,24,03,32,7.70
2006,09,24,03,33,7.70
2006,09,24,03,34,7.70
2006,09,24,03,35,7.70
2006,09,24,03,36,7.70
2006,09,24,03,37,7.70
2006,09,24,03,38,7.70
2006,09,24,03,39,7.60
2006,09,24,03,40,7.60
2006,09,24,03,41,7.60
2006,09,24,03,42,7.60
2006,09,24,03,43,7.60
2006,09,24,03,44,7.60
2006,09,24,03,45,7.60
2006,09,24,03,46,7.60
2006,09,24,03,47,7.60
2006,09,24,03,48,7.60
2006,09,24,03,49,7.60
2006,09,24,03,50,7.50
2006,09,24,03,51,7.50
2006,09,24,03,52,7.50
2006,09,24,03,53,7.50
2006,09,24,03,54,7.50
2006,09,24,03,55,7.50
2006,09,24,03,56,7.40
2006,09,24,03,57,7.40
2006,09,24,03,58,7.40
2006,09,24,03,59,7.40
2006,09,24,04,00,7.40
2006,09,24,04,01,7.40
2006,09,24,04,02,7.40
2006,09,24,04,03,7.40
2006,09,24,04,04,7.40
2006,09,24,04,05,7.40
2006,09,24,04,06,7.40
2006,09,24,04,07,7.40
2006,09,24,04,08,7.40
2006,09,24,04,09,7.40
2006,09,24,04,10,7.40
2006,09,24,04,11,7.40
2006,09,24,04,12,7.40
2006,09,24,04,13,7.40
2006,09,24,04,14,7.30
2006,09,24,04,15,7.30
2006,09,24,04,16,7.30
2006,09,24,04,17,7.30
2006,09,24,04,18,7.30
2006,09,24,04,19,7.30
2006,09,24,04,20,7.30
2006,09,24,04,21,7.30
2006,09,24,04,22,7.30
2006,09,24,04,23,7.30
2006,09,24,04,24,7.20
2006,09,24,04,25,7.20
2006,09,24,04,26,7.20
2006,09,24,04,27,7.20
2006,09,24,04,28,7.20
2006,09,24,04,29,7.20
2006,09,24,04,30,7.20
2006,09,24,04,31,7.20
2006,09,24,04,32,7.20
2006,09,24,04,33,7.20
2006,09,24,04,34,7.20
2006,09,24,04,35,7.20
2006,09,24,04,36,7.20
2006,09,24,04,37,7.20
2006,09,24,04,38,7.20
2006,09,24,04,39,7.20
2006,09,24,04,40,7.10
2006,09,24,04,41,7.10
2006,09,24,04,42,7.10
2006,09,24,04,43,7.10
2006,09,24,04,44,7.10
2006,09,24,04,45,7.10
2006,09,24,04,46,7.10
2006,09,24,04,47,7.10
2006,09,24,04,48,7.10
2006,09,24,04,49,7.10
2006,09,24,04,50,7.10
2006,09,24,04,51,7.10
2006,09,24,04,52,7.10
2006,09,24,04,53,7.10
2006,09,24,04,54,7.10
2006,09,24,04,55,7.00
2006,09,24,04,56,7.00
2006,09,24,04,57,7.00
2006,09,24,04,58,7.00
2006,09,24,04,59,7.00
2006,09,24,05,00,7.10
2006,09,24,05,01,7.10
2006,09,24,05,02,7.00
2006,09,24,05,03,7.00
2006,09,24,05,04,7.00
2006,09,24,05,05,7.00
2006,09,24,05,06,7.00
2006,09,24,05,07,7.00
2006,09,24,05,08,7.00
2006,09,24,05,09,7.00
2006,09,24,05,10,7.00
2006,09,24,05,11,7.00
2006,09,24,05,12,7.00
2006,09,24,05,13,7.00
2006,09,24,05,14,7.00
2006,09,24,05,15,6.90
2006,09,24,05,16,6.90
2006,09,24,05,17,6.90
2006,09,24,05,18,6.90
2006,09,24,05,19,6.90
2006,09,24,05,20,6.90
2006,09,24,05,21,6.90
2006,09,24,05,22,6.90
2006,09,24,05,23,6.90
2006,09,24,05,24,6.90
2006,09,24,05,25,6.90
2006,09,24,05,26,6.80
2006,09,24,05,27,6.80
2006,09,24,05,28,6.80
2006,09,24,05,29,6.80
2006,09,24,05,30,6.80
2006,09,24,05,31,6.80
2006,09,24,05,32,6.80
2006,09,24,05,33,6.80
2006,09,24,05,34,6.80
2006,09,24,05,35,6.80
2006,09,24,05,36,6.80
2006,09,24,05,37,6.80
2006,09,24,05,38,6.80
2006,09,24,05,39,6.80
2006,09,24,05,40,6.80
2006,09,24,05,41,6.80
2006,09,24,05,42,6.80
2006,09,24,05,43,6.80
2006,09,24,05,44,6.80
2006,09,24,05,45,6.80
2006,09,24,05,46,6.80
2006,09,24,05,47,6.80
2006,09,24,05,48,6.80
2006,09,24,05,49,6.70
2006,09,24,05,50,6.70
2006,09,24,05,51,6.70
2006,09,24,05,52,6.70
2006,09,24,05,53,6.70
2006,09,24,05,54,6.70
2006,09,24,05,55,6.70
2006,09,24,05,56,6.70
2006,09,24,05,57,6.70
2006,09,24,05,58,6.70
2006,09,24,05,59,6.70
2006,09,24,06,00,6.70
2006,09,24,06,01,6.70
2006,09,24,06,02,6.70
2006,09,24,06,03,6.70
2006,09,24,06,04,6.70
2006,09,24,06,05,6.70
2006,09,24,06,06,6.70
2006,09,24,06,07,6.70
2006,09,24,06,08,6.70
2006,09,24,06,09,6.70
2006,09,24,06,10,6.70
2006,09,24,06,11,6.70
2006,09,24,06,12,6.70
2006,09,24,06,13,6.60
2006,09,24,06,14,6.60
2006,09,24,06,15,6.70
2006,09,24,06,16,6.70
2006,09,24,06,17,6.70
2006,09,24,06,18,6.70
2006,09,24,06,19,6.70
2006,09,24,06,20,6.70
2006,09,24,06,21,6.70
2006,09,24,06,22,6.70
2006,09,24,06,23,6.70
2006,09,24,06,24,6.70
2006,09,24,06,25,6.70
2006,09,24,06,26,6.70
2006,09,24,06,27,6.70
2006,09,24,06,28,6.70
2006,09,24,06,29,6.60
2006,09,24,06,30,6.60
2006,09,24,06,31,6.60
2006,09,24,06,32,6.60
2006,09,24,06,33,6.60
2006,09,24,06,34,6.60
2006,09,24,06,35,6.60
2006,09,24,06,36,6.60
2006,09,24,06,37,6.60
2006,09,24,06,38,6.60
2006,09,24,06,39,6.50
2006,09,24,06,40,6.50
2006,09,24,06,41,6.50
2006,09,24,06,42,6.50
2006,09,24,06,43,6.50
2006,09,24,06,44,6.50
2006,09,24,06,45,6.40
2006,09,24,06,46,6.40
2006,09,24,06,47,6.40
2006,09,24,06,48,6.40
2006,09,24,06,49,6.40
2006,09,24,06,50,6.40
2006,09,24,06,51,6.40
2006,09,24,06,52,6.40
2006,09,24,06,53,6.40
2006,09,24,06,54,6.40
2006,09,24,06,55,6.40
2006,09,24,06,56,6.40
2006,09,24,06,57,6.40
2006,09,24,06,58,6.40
2006,09,24,06,59,6.40
2006,09,24,07,00,6.40
2006,09,24,07,01,6.40
2006,09,24,07,02,6.40
2006,09,24,07,03,6.40
2006,09,24,07,04,6.40
2006,09,24,07,05,6.40
2006,09,24,07,06,6.40
2006,09,24,07,07,6.40
2006,09,24,07,08,6.40
2006,09,24,07,09,6.40
2006,09,24,07,10,6.40
2006,09,24,07,11,6.40
2006,09,24,07,12,6.40
2006,09,24,07,13,6.40
2006,09,24,07,14,6.40
2006,09,24,07,15,6.40
2006,09,24,07,16,6.40
2006,09,24,07,17,6.40
2006,09,24,07,18,6.40
2006,09,24,07,19,6.40
2006,09,24,07,20,6.40
2006,09,24,07,21,6.40
2006,09,24,07,22,6.40
2006,09,24,07,23,6.40
2006,09,24,07,24,6.30
2006,09,24,07,25,6.30
2006,09,24,07,26,6.30
2006,09,24,07,27,6.30
2006,09,24,07,28,6.30
2006,09,24,07,29,6.30
2006,09,24,07,30,6.30
2006,09,24,07,31,6.30
2006,09,24,07,32,6.30
2006,09,24,07,33,6.30
2006,09,24,07,34,6.30
2006,09,24,07,35,6.30
2006,09,24,07,36,6.30
2006,09,24,07,37,6.30
2006,09,24,07,38,6.30
2006,09,24,07,39,6.30
2006,09,24,07,40,6.30
2006,09,24,07,41,6.30
2006,09,24,07,42,6.30
2006,09,24,07,43,6.30
2006,09,24,07,44,6.40
2006,09,24,07,45,6.40
2006,09,24,07,46,6.40
2006,09,24,07,47,6.40
2006,09,24,07,48,6.40
2006,09,24,07,49,6.40
2006,09,24,07,50,6.40
2006,09,24,07,51,6.40
2006,09,24,07,52,6.40
2006,09,24,07,53,6.40
2006,09,24,07,54,6.40
2006,09,24,07,55,6.40
2006,09,24,07,56,6.40
2006,09,24,07,57,6.40
2006,09,24,07,58,6.40
2006,09,24,07,59,6.40
2006,09,24,08,00,6.50
2006,09,24,08,01,6.50
2006,09,24,08,02,6.50
2006,09,24,08,03,6.50
2006,09,24,08,04,6.50
2006,09,24,08,05,6.60
2006,09,24,08,06,6.60
2006,09,24,08,07,6.60
2006,09,24,08,08,6.60
2006,09,24,08,09,6.60
2006,09,24,08,10,6.70
2006,09,24,08,11,6.70
2006,09,24,08,12,6.70
2006,09,24,08,13,6.80
2006,09,24,08,14,6.80
2006,09,24,08,15,6.80
2006,09,24,08,16,6.90
2006,09,24,08,17,6.90
2006,09,24,08,18,7.00
2006,09,24,08,19,7.00
2006,09,24,08,20,7.10
2006,09,24,08,21,7.10
2006,09,24,08,22,7.20
2006,09,24,08,23,7.20
2006,09,24,08,24,7.20
2006,09,24,08,25,7.20
2006,09,24,08,26,7.20
2006,09,24,08,27,7.20
2006,09,24,08,28,7.30
2006,09,24,08,29,7.30
2006,09,24,08,30,7.40
2006,09,24,08,31,7.40
2006,09,24,08,32,7.50
2006,09,24,08,33,7.50
2006,09,24,08,34,7.60
2006,09,24,08,35,7.70
2006,09,24,08,36,7.70
2006,09,24,08,37,7.80
2006,09,24,08,38,7.80
2006,09,24,08,39,7.90
2006,09,24,08,40,7.90
2006,09,24,08,41,7.90
2006,09,24,08,42,8.00
2006,09,24,08,43,8.00
2006,09,24,08,44,8.10
2006,09,24,08,45,8.10
2006,09,24,08,46,8.20
2006,09,24,08,47,8.30
2006,09,24,08,48,8.30
2006,09,24,08,49,8.40
2006,09,24,08,50,8.50
2006,09,24,08,51,8.60
2006,09,24,08,52,8.70
2006,09,24,08,53,8.80
2006,09,24,08,54,8.80
2006,09,24,08,55,8.80
2006,09,24,08,56,8.90
2006,09,24,08,57,8.90
2006,09,24,08,58,9.00
2006,09,24,08,59,9.00
2006,09,24,09,00,9.00
2006,09,24,09,01,9.10
2006,09,24,09,02,9.10
2006,09,24,09,03,9.20
2006,09,24,09,04,9.20
2006,09,24,09,05,9.20
2006,09,24,09,06,9.30
2006,09,24,09,07,9.30
2006,09,24,09,08,9.40
2006,09,24,09,09,9.40
2006,09,24,09,10,9.50
2006,09,24,09,11,9.60
2006,09,24,09,12,9.70
2006,09,24,09,13,9.80
2006,09,24,09,14,9.80
2006,09,24,09,15,10.00
2006,09,24,09,16,10.10
2006,09,24,09,17,10.20
2006,09,24,09,18,10.30
2006,09,24,09,19,10.40
2006,09,24,09,20,10.50
2006,09,24,09,21,10.60
2006,09,24,09,22,10.70
2006,09,24,09,23,10.80
2006,09,24,09,24,10.90
2006,09,24,09,25,11.00
2006,09,24,09,26,11.10
2006,09,24,09,27,11.30
2006,09,24,09,28,11.50
2006,09,24,09,29,11.60
2006,09,24,09,30,11.80
2006,09,24,09,31,12.00
2006,09,24,09,32,12.10
2006,09,24,09,33,12.20
2006,09,24,09,34,12.30
2006,09,24,09,35,12.30
2006,09,24,09,36,12.40
2006,09,24,09,37,12.50
2006,09,24,09,38,12.60
2006,09,24,09,39,12.70
2006,09,24,09,40,12.80
2006,09,24,09,41,12.80
2006,09,24,09,42,12.90
2006,09,24,09,43,13.00
2006,09,24,09,44,13.10
2006,09,24,09,45,13.20
2006,09,24,09,46,13.30
2006,09,24,09,47,13.40
2006,09,24,09,48,13.60
2006,09,24,09,49,13.70
2006,09,24,09,50,13.90
2006,09,24,09,51,14.10
2006,09,24,09,52,14.30
2006,09,24,09,53,14.40
2006,09,24,09,54,14.60
2006,09,24,09,55,14.80
2006,09,24,09,56,14.90
2006,09,24,09,57,15.00
2006,09,24,09,58,15.00
2006,09,24,09,59,15.20
2006,09,24,10,00,15.30
2006,09,24,10,01,15.50
2006,09,24,10,02,15.50
2006,09,24,10,03,15.50
2006,09,24,10,04,15.60
2006,09,24,10,05,15.70
2006,09,24,10,06,15.70
2006,09,24,10,07,15.70
2006,09,24,10,08,15.70
2006,09,24,10,09,15.80
2006,09,24,10,10,15.80
2006,09,24,10,11,15.80
2006,09,24,10,12,15.90
2006,09,24,10,13,15.90
2006,09,24,10,14,15.90
2006,09,24,10,15,15.90
2006,09,24,10,16,15.90
2006,09,24,10,17,16.00
2006,09,24,10,18,16.00
2006,09,24,10,19,16.10
2006,09,24,10,20,16.20
2006,09,24,10,21,16.20
2006,09,24,10,22,16.30
2006,09,24,10,23,16.30
2006,09,24,10,24,16.40
2006,09,24,10,25,16.50
2006,09,24,10,26,16.50
2006,09,24,10,27,16.60
2006,09,24,10,28,16.60
2006,09,24,10,29,16.60
2006,09,24,10,30,16.60
2006,09,24,10,31,16.60
2006,09,24,10,32,16.60
2006,09,24,10,33,16.60
2006,09,24,10,34,16.60
2006,09,24,10,35,16.60
2006,09,24,10,36,16.60
2006,09,24,10,37,16.60
2006,09,24,10,38,16.70
2006,09,24,10,39,16.70
2006,09,24,10,40,16.70
2006,09,24,10,41,16.80
2006,09,24,10,42,16.90
2006,09,24,10,43,16.90
2006,09,24,10,44,17.00
2006,09,24,10,45,17.10
2006,09,24,10,46,17.10
2006,09,24,10,47,17.10
2006,09,24,10,48,17.10
2006,09,24,10,49,17.10
2006,09,24,10,50,17.10
2006,09,24,10,51,17.20
2006,09,24,10,52,17.30
2006,09,24,10,53,17.40
2006,09,24,10,54,17.50
2006,09,24,10,55,17.60
2006,09,24,10,56,17.70
2006,09,24,10,57,17.80
2006,09,24,10,58,17.90
2006,09,24,10,59,17.90
2006,09,24,11,00,18.00
2006,09,24,11,01,18.00
2006,09,24,11,02,18.10
2006,09,24,11,03,18.10
2006,09,24,11,04,18.20
2006,09,24,11,05,18.30
2006,09,24,11,06,18.30
2006,09,24,11,07,18.30
2006,09,24,11,08,18.30
2006,09,24,11,09,18.30
2006,09,24,11,10,18.30
2006,09,24,11,11,18.30
2006,09,24,11,12,18.40
2006,09,24,11,13,18.50
2006,09,24,11,14,18.50
2006,09,24,11,15,18.60
2006,09,24,11,16,18.70
2006,09,24,11,17,18.70
2006,09,24,11,18,18.70
2006,09,24,11,19,18.80
2006,09,24,11,20,18.80
2006,09,24,11,21,18.90
2006,09,24,11,22,19.00
2006,09,24,11,23,19.00
2006,09,24,11,24,19.10
2006,09,24,11,25,19.20
2006,09,24,11,26,19.20
2006,09,24,11,27,19.30
2006,09,24,11,28,19.30
2006,09,24,11,29,19.30
2006,09,24,11,30,19.30
2006,09,24,11,31,19.30
2006,09,24,11,32,19.30
2006,09,24,11,33,19.30
2006,09,24,11,34,19.20
2006,09,24,11,35,19.20
2006,09,24,11,36,19.20
2006,09,24,11,37,19.30
2006,09,24,11,38,19.30
2006,09,24,11,39,19.40
2006,09,24,11,40,19.40
2006,09,24,11,41,19.50
2006,09,24,11,42,19.50
2006,09,24,11,43,19.60
2006,09,24,11,44,19.60
2006,09,24,11,45,19.70
2006,09,24,11,46,19.70
2006,09,24,11,47,19.80
2006,09,24,11,48,19.80
2006,09,24,11,49,19.80
2006,09,24,11,50,19.80
2006,09,24,11,51,19.80
2006,09,24,11,52,19.80
2006,09,24,11,53,19.80
2006,09,24,11,54,19.80
2006,09,24,11,55,19.90
2006,09,24,11,56,19.90
2006,09,24,11,57,20.00
2006,09,24,11,58,20.00
2006,09,24,11,59,20.10
2006,09,24,12,00,20.10
2006,09,24,12,01,20.10
2006,09,24,12,02,20.10
2006,09,24,12,03,20.10
2006,09,24,12,04,20.20
2006,09,24,12,05,20.20
2006,09,24,12,06,20.30
2006,09,24,12,07,20.30
2006,09,24,12,08,20.30
2006,09,24,12,09,20.30
2006,09,24,12,10,20.30
2006,09,24,12,11,20.40
2006,09,24,12,12,20.40
2006,09,24,12,13,20.40
2006,09,24,12,14,20.50
2006,09,24,12,15,20.60
2006,09,24,12,16,20.60
2006,09,24,12,17,20.70
2006,09,24,12,18,20.80
2006,09,24,12,19,20.90
2006,09,24,12,20,21.00
2006,09,24,12,21,21.00
2006,09,24,12,22,21.10
2006,09,24,12,23,21.20
2006,09,24,12,24,21.20
2006,09,24,12,25,21.30
2006,09,24,12,26,21.30
2006,09,24,12,27,21.30
2006,09,24,12,28,21.20
2006,09,24,12,29,21.20
2006,09,24,12,30,21.20
2006,09,24,12,31,21.30
2006,09,24,12,32,21.30
2006,09,24,12,33,21.30
2006,09,24,12,34,21.40
2006,09,24,12,35,21.40
2006,09,24,12,36,21.40
2006,09,24,12,37,21.40
2006,09,24,12,38,21.40
2006,09,24,12,39,21.30
2006,09,24,12,40,21.30
2006,09,24,12,41,21.40
2006,09,24,12,42,21.40
2006,09,24,12,43,21.40
2006,09,24,12,44,21.50
2006,09,24,12,45,21.50
2006,09,24,12,46,21.50
2006,09,24,12,47,21.60
2006,09,24,12,48,21.50
2006,09,24,12,49,21.60
2006,09,24,12,50,21.60
2006,09,24,12,51,21.60
2006,09,24,12,52,21.60
2006,09,24,12,53,21.60
2006,09,24,12,54,21.70
2006,09,24,12,55,21.70
2006,09,24,12,56,21.80
2006,09,24,12,57,21.90
2006,09,24,12,58,21.90
2006,09,24,12,59,21.80
2006,09,24,13,00,21.80
2006,09,24,13,01,21.60
2006,09,24,13,02,21.50
2006,09,24,13,03,21.40
2006,09,24,13,04,21.40
2006,09,24,13,05,21.50
2006,09,24,13,06,21.60
2006,09,24,13,07,21.60
2006,09,24,13,08,21.70
2006,09,24,13,09,21.70
2006,09,24,13,10,21.70
2006,09,24,13,11,21.70
2006,09,24,13,12,21.70
2006,09,24,13,13,21.70
2006,09,24,13,14,21.70
2006,09,24,13,15,21.70
2006,09,24,13,16,21.80
2006,09,24,13,17,21.80
2006,09,24,13,18,21.80
2006,09,24,13,19,21.90
2006,09,24,13,20,22.00
2006,09,24,13,21,22.00
2006,09,24,13,22,22.10
2006,09,24,13,23,22.10
2006,09,24,13,24,22.00
2006,09,24,13,25,22.00
2006,09,24,13,26,22.00
2006,09,24,13,27,22.00
2006,09,24,13,28,22.00
2006,09,24,13,29,22.00
2006,09,24,13,30,22.10
2006,09,24,13,31,22.10
2006,09,24,13,32,22.10
2006,09,24,13,33,22.20
2006,09,24,13,34,22.20
2006,09,24,13,35,22.30
2006,09,24,13,36,22.30
2006,09,24,13,37,22.30
2006,09,24,13,38,22.40
2006,09,24,13,39,22.40
2006,09,24,13,40,22.40
2006,09,24,13,41,22.40
2006,09,24,13,42,22.40
2006,09,24,13,43,22.30
2006,09,24,13,44,22.30
2006,09,24,13,45,22.40
2006,09,24,13,46,22.40
2006,09,24,13,47,22.50
2006,09,24,13,48,22.60
2006,09,24,13,49,22.60
2006,09,24,13,50,22.60
2006,09,24,13,51,22.60
2006,09,24,13,52,22.60
2006,09,24,13,53,22.60
2006,09,24,13,54,22.60
2006,09,24,13,55,22.60
2006,09,24,13,56,22.60
2006,09,24,13,57,22.70
2006,09,24,13,58,22.70
2006,09,24,13,59,22.70
2006,09,24,14,00,22.70
2006,09,24,14,01,22.70
2006,09,24,14,02,22.80
2006,09,24,14,03,22.80
2006,09,24,14,04,22.90
2006,09,24,14,05,23.00
2006,09,24,14,06,23.00
2006,09,24,14,07,23.10
2006,09,24,14,08,23.10
2006,09,24,14,09,23.20
2006,09,24,14,10,23.20
2006,09,24,14,11,23.20
2006,09,24,14,12,23.10
2006,09,24,14,13,23.10
2006,09,24,14,14,23.10
2006,09,24,14,15,23.00
2006,09,24,14,16,23.00
2006,09,24,14,17,22.90
2006,09,24,14,18,22.90
2006,09,24,14,19,23.00
2006,09,24,14,20,23.00
2006,09,24,14,21,23.00
2006,09,24,14,22,23.00
2006,09,24,14,23,23.00
2006,09,24,14,24,23.10
2006,09,24,14,25,23.10
2006,09,24,14,26,23.10
2006,09,24,14,27,23.10
2006,09,24,14,28,23.00
2006,09,24,14,29,23.00
2006,09,24,14,30,23.10
2006,09,24,14,31,23.10
2006,09,24,14,32,23.00
2006,09,24,14,33,23.00
2006,09,24,14,34,22.90
2006,09,24,14,35,22.90
2006,09,24,14,36,22.90
2006,09,24,14,37,22.90
2006,09,24,14,38,22.90
2006,09,24,14,39,22.90
2006,09,24,14,40,23.00
2006,09,24,14,41,22.90
2006,09,24,14,42,23.00
2006,09,24,14,43,23.00
2006,09,24,14,44,23.10
2006,09,24,14,45,23.10
2006,09,24,14,46,23.20
2006,09,24,14,47,23.20
2006,09,24,14,48,23.20
2006,09,24,14,49,23.30
2006,09,24,14,50,23.30
2006,09,24,14,51,23.30
2006,09,24,14,52,23.30
2006,09,24,14,53,23.20
2006,09,24,14,54,23.20
2006,09,24,14,55,23.20
2006,09,24,14,56,23.30
2006,09,24,14,57,23.30
2006,09,24,14,58,23.40
2006,09,24,14,59,23.40
2006,09,24,15,00,23.50
2006,09,24,15,01,23.50
2006,09,24,15,02,23.60
2006,09,24,15,03,23.60
2006,09,24,15,04,23.60
2006,09,24,15,05,23.70
2006,09,24,15,06,23.70
2006,09,24,15,07,23.80
2006,09,24,15,08,23.80
2006,09,24,15,09,23.80
2006,09,24,15,10,23.80
2006,09,24,15,11,23.80
2006,09,24,15,12,23.70
2006,09,24,15,13,23.70
2006,09,24,15,14,23.60
2006,09,24,15,15,23.60
2006,09,24,15,16,23.60
2006,09,24,15,17,23.60
2006,09,24,15,18,23.60
2006,09,24,15,19,23.60
2006,09,24,15,20,23.60
2006,09,24,15,21,23.70
2006,09,24,15,22,23.70
2006,09,24,15,23,23.80
2006,09,24,15,24,23.80
2006,09,24,15,25,23.80
2006,09,24,15,26,23.90
2006,09,24,15,27,23.90
2006,09,24,15,28,23.90
2006,09,24,15,29,23.90
2006,09,24,15,30,23.90
2006,09,24,15,31,23.90
2006,09,24,15,32,23.90
2006,09,24,15,33,23.90
2006,09,24,15,34,24.00
2006,09,24,15,35,24.00
2006,09,24,15,36,24.00
2006,09,24,15,37,24.00
2006,09,24,15,38,24.00
2006,09,24,15,39,24.10
2006,09,24,15,40,24.00
2006,09,24,15,41,23.90
2006,09,24,15,42,23.90
2006,09,24,15,43,23.90
2006,09,24,15,44,23.90
2006,09,24,15,45,23.90
2006,09,24,15,46,23.90
2006,09,24,15,47,23.90
2006,09,24,15,48,23.90
2006,09,24,15,49,23.90
2006,09,24,15,50,23.90
2006,09,24,15,51,23.90
2006,09,24,15,52,23.90
2006,09,24,15,53,23.90
2006,09,24,15,54,23.90
2006,09,24,15,55,24.00
2006,09,24,15,56,24.00
2006,09,24,15,57,24.10
2006,09,24,15,58,24.10
2006,09,24,15,59,24.10
2006,09,24,16,00,24.10
2006,09,24,16,01,24.20
2006,09,24,16,02,24.20
2006,09,24,16,03,24.20
2006,09,24,16,04,24.20
2006,09,24,16,05,24.20
2006,09,24,16,06,24.20
2006,09,24,16,07,24.30
2006,09,24,16,08,24.30
2006,09,24,16,09,24.30
2006,09,24,16,10,24.30
2006,09,24,16,11,24.30
2006,09,24,16,12,24.20
2006,09,24,16,13,24.20
2006,09,24,16,14,24.20
2006,09,24,16,15,24.10
2006,09,24,16,16,24.10
2006,09,24,16,17,24.10
2006,09,24,16,18,24.10
2006,09,24,16,19,24.10
2006,09,24,16,20,24.10
2006,09,24,16,21,24.00
2006,09,24,16,22,24.00
2006,09,24,16,23,24.00
2006,09,24,16,24,23.90
2006,09,24,16,25,23.90
2006,09,24,16,26,24.00
2006,09,24,16,27,24.00
2006,09,24,16,28,23.90
2006,09,24,16,29,23.90
2006,09,24,16,30,23.80
2006,09,24,16,31,23.80
2006,09,24,16,32,23.80
2006,09,24,16,33,23.80
2006,09,24,16,34,23.90
2006,09,24,16,35,23.90
2006,09,24,16,36,23.90
2006,09,24,16,37,24.00
2006,09,24,16,38,24.00
2006,09,24,16,39,24.00
2006,09,24,16,40,23.90
2006,09,24,16,41,23.90
2006,09,24,16,42,23.80
2006,09,24,16,43,23.80
2006,09,24,16,44,23.80
2006,09,24,16,45,23.80
2006,09,24,16,46,23.80
2006,09,24,16,47,23.80
2006,09,24,16,48,23.80
2006,09,24,16,49,23.80
2006,09,24,16,50,23.80
2006,09,24,16,51,23.80
2006,09,24,16,52,23.80
2006,09,24,16,53,23.80
2006,09,24,16,54,23.80
2006,09,24,16,55,23.90
2006,09,24,16,56,23.90
2006,09,24,16,57,23.90
2006,09,24,16,58,24.00
2006,09,24,16,59,24.00
2006,09,24,17,00,24.10
2006,09,24,17,01,24.00
2006,09,24,17,02,23.90
2006,09,24,17,03,24.00
2006,09,24,17,04,23.90
2006,09,24,17,05,23.90
2006,09,24,17,06,23.90
2006,09,24,17,07,23.90
2006,09,24,17,08,23.90
2006,09,24,17,09,23.90
2006,09,24,17,10,23.80
2006,09,24,17,11,23.80
2006,09,24,17,12,23.80
2006,09,24,17,13,23.70
2006,09,24,17,14,23.60
2006,09,24,17,15,23.60
2006,09,24,17,16,23.50
2006,09,24,17,17,23.40
2006,09,24,17,18,23.30
2006,09,24,17,19,23.30
2006,09,24,17,20,23.30
2006,09,24,17,21,23.20
2006,09,24,17,22,23.20
2006,09,24,17,23,23.20
2006,09,24,17,24,23.10
2006,09,24,17,25,23.10
2006,09,24,17,26,23.00
2006,09,24,17,27,22.90
2006,09,24,17,28,22.90
2006,09,24,17,29,22.80
2006,09,24,17,30,22.80
2006,09,24,17,31,22.80
2006,09,24,17,32,22.80
2006,09,24,17,33,22.80
2006,09,24,17,34,22.80
2006,09,24,17,35,22.80
2006,09,24,17,36,22.70
2006,09,24,17,37,22.70
2006,09,24,17,38,22.70
2006,09,24,17,39,22.70
2006,09,24,17,40,22.60
2006,09,24,17,41,22.60
2006,09,24,17,42,22.60
2006,09,24,17,43,22.60